User: anonymous   Login
Location: Владивосток
(43.1151°N, 131.8856°E)
Time: 20:13:59
(UTC+10:00)
Language:

FENGYUN 1C DEB - Orbit

View from above orbital plane
View from above orbital plane
View from above satellite
View from above satellite

Ground track
Ground track

The orbit data is extracted from the following two-line orbital elements,

1 30552U 99025AKS 24204.26278797  .00014767  00000-0  51561-2 0  9995
2 30552  98.8256 309.3022 0014383 335.0252  25.0235 14.35274233903040
Epoch (UTC): 22 July 2024 06:18:24
Eccentricity: 0.0014383
inclination: 98.8256°
perigee height: 764 km
apogee height: 784 km
right ascension of ascending node: 309.3022°
argument of perigee: 335.0252°
revolutions per day: 14.35274233
mean anomaly at epoch: 25.0235°
orbit number at epoch: 90304

The dashed part of the orbit path shows where the satellite is in the earth's shadow,  

DLR